{"data":{"norad_id":63054,"intl_designator":"2025-035C","name":"STARLINK-11347 [DTC]","alt_names":[],"object_type":"PAYLOAD","status":"ACTIVE","operator":null,"country":"US","launch_date":"2025-02-21","launch_site_code":"AFETR","launch_vehicle":null,"mission":null,"orbit_class":"UNKNOWN","rcs_meters":null,"size_class":null,"mass_kg":null,"dimensions":null,"purposes":["comms"],"wikipedia_slug":null,"has_3d_model":false,"image_url":null,"decayed_at":null,"tle_current":{"epoch":"2026-05-24T18:35:41.831808Z","epoch_age_seconds":97777,"freshness":"FRESH","line1":"1 63054U 25035C   26144.77478972  .00203497  00000+0  15432-2 0  9992","line2":"2 63054  43.0009 277.0315 0001175  41.8416 318.2541 15.70957792 73184","mean_motion":15.70957792,"eccentricity":0.0001175,"inclination_deg":43.0009,"raan_deg":277.0315,"arg_perigee_deg":41.8416,"mean_anomaly_deg":318.2541,"bstar":0.0015432,"rev_number":7318,"period_min":91.663824918346,"perigee_km":355.36713131344,"apogee_km":356.94969073503,"semimajor_km":6734.2954110242,"source":"CELESTRAK","updated_at":"2026-05-25T13:38:19.871270Z"}}}